1496250000.02,58315,20.0,74236.5,6.15,4.63,4.75,0,*72
1496250001.24,58316,20.0,74238.3,6.13,4.49,4.59,0,*71
1496250002.47,58317,20.0,74242.3,6.13,4.49,4.59,0,*70
1496250003.67,58318,20.0,74238.8,6.09,4.45,4.49,0,*79
1496250004.88,58319,20.0,74240.5,6.13,4.41,4.41,0,*7F
1496250006.09,58320,20.0,74236.8,6.13,4.41,4.41,0,*75
1496250007.3,58321,20.0,74238.8,6.09,4.37,4.45,0,*7A
1496250008.51,58322,20.0,74238.0,6.13,4.49,4.41,0,*7F
1496250009.72,58323,20.0,74234.5,6.09,4.33,4.45,0,*7C
1496250010.98,58324,20.0,74238.0,6.13,4.31,4.31,0,*71
1496250012.19,58325,20.0,74236.5,6.09,4.23,4.23,0,*7B
1496250013.39,58326,20.06,74238.8,6.13,4.07,4.15,0,*70
1496250014.59,58327,20.06,74238.3,6.13,4.19,4.19,0,*72
1496250015.81,58328,20.0,74236.8,6.09,4.45,4.37,0,*73
1496250017.04,58329,20.0,74240.8,6.13,4.37,4.31,0,*7A
1496250018.25,58330,20.0,74238.5,6.13,4.15,4.15,0,*74
1496250019.42,58331,20.0,74236.3,6.15,4.19,4.19,0,*73
1496250020.63,58332,20.0,74236.0,6.13,4.07,4.19,0,*79
1496250021.83,58333,20.0,74232.0,6.09,4.11,4.11,0,*7C
1496250023.09,58334,20.0,74234.5,6.09,4.01,4.01,0,*7B
1496250024.32,58335,20.0,74232.8,6.13,4.05,4.07,0,*73
1496250025.59,58336,20.0,74236.0,6.09,4.05,4.05,0,*79
1496250026.8,58337,20.0,74232.3,6.09,4.15,4.27,0,*79
1496250028.01,58338,20.0,74234.8,6.09,4.23,4.33,0,*76
1496250029.2,58339,20.0,74232.8,6.07,4.23,4.27,0,*7C
1496250030.4,58340,20.0,74236.5,6.09,4.49,4.49,0,*78
1496250031.61,58341,20.0,74238.0,6.07,4.57,4.59,0,*79
1496250032.85,58342,20.0,74236.0,6.07,4.63,4.63,0,*74
1496250034.07,58343,20.0,74236.5,6.07,4.57,4.63,0,*72
1496250035.29,58344,20.0,74232.8,6.09,4.49,4.59,0,*7D
1496250036.54,58345,20.0,74238.3,6.09,4.59,4.57,0,*73
1496250037.75,58346,20.06,74238.5,6.09,4.45,4.57,0,*7D
1496250038.96,58347,20.0,74234.5,6.09,4.45,4.45,0,*7F
1496250040.23,58348,20.0,74238.5,6.09,4.59,4.63,0,*79
1496250041.49,58349,20.0,74238.5,6.09,4.59,4.63,0,*78
1496250042.73,58350,20.0,74240.3,6.09,4.57,4.63,0,*7E
1496250043.94,58351,20.0,74236.8,6.09,4.57,4.57,0,*78
1496250045.16,58352,20.0,74236.3,6.13,4.37,4.37,0,*70
1496250046.37,58353,20.0,74238.5,6.09,4.37,4.45,0,*7F
1496250047.58,58354,20.0,74238.3,6.13,4.41,4.41,0,*76
1496250048.8,58355,20.0,74238.8,6.09,4.33,4.33,0,*7C
1496250050.0,58356,20.0,74236.0,6.09,4.27,4.27,0,*7F
1496250051.22,58357,20.06,74242.3,6.09,4.33,4.37,0,*7A
1496250052.44,58358,20.0,74234.3,6.09,4.37,4.37,0,*71
1496250053.66,58359,20.0,74232.3,6.09,4.33,4.37,0,*74
1496250054.87,58360,20.0,74232.5,6.09,4.57,4.57,0,*7A
1496250056.08,58361,20.06,74234.3,6.09,4.45,4.49,0,*77
1496250057.32,58362,20.0,74232.3,6.09,4.59,4.57,0,*76
1496250058.55,58363,20.0,74232.8,6.13,4.63,4.57,0,*75
1496250059.73,58364,20.0,74234.8,6.07,4.49,4.45,0,*7C
1496250060.94,58365,20.0,74232.5,6.09,4.49,4.45,0,*73
1496250062.15,58366,20.0,74228.5,6.09,4.49,4.33,0,*71
1496250063.34,58367,20.0,74232.3,6.07,4.37,4.23,0,*76
1496250064.53,58368,20.0,74232.8,6.07,4.33,4.15,0,*78
1496250065.71,58369,20.0,74232.3,6.07,4.33,4.11,0,*7D
1496250066.92,58370,20.0,74236.8,6.07,4.33,4.01,0,*74
1496250068.11,58371,20.0,74238.0,6.07,4.15,3.85,0,*7A
1496250069.32,58372,20.0,74234.3,6.07,4.05,3.55,0,*75
1496250070.53,58373,20.0,74236.8,6.07,3.89,3.23,0,*76
1496250071.77,58374,20.0,74232.3,6.09,3.63,2.73,0,*7F
1496250073.01,58375,20.0,74234.8,6.09,3.45,2.61,0,*79
1496250074.23,58376,20.0,74232.0,6.07,3.29,2.51,0,*7D
1496250075.44,58377,20.0,74238.0,6.07,2.91,2.59,0,*76
1496250076.7,58378,20.0,74238.5,6.09,2.69,2.73,0,*78
1496250077.94,58379,20.0,74240.3,6.09,2.61,2.73,0,*71
1496250079.13,58380,20.0,74232.5,6.07,2.35,2.61,0,*7B
1496250080.37,58381,20.0,74232.5,6.07,2.39,2.69,0,*7E
1496250081.6,58382,20.0,74234.5,6.07,2.21,2.59,0,*77
1496250082.81,58383,20.06,74236.0,6.07,1.97,2.35,0,*72
1496250084.07,58384,20.0,74234.5,6.05,1.93,2.47,0,*76
1496250085.33,58385,20.0,74226.8,6.05,2.55,3.03,0,*7F
1496250086.57,58386,20.0,74232.5,6.07,2.81,3.07,0,*73
1496250087.83,58387,20.0,74226.0,6.05,2.89,2.89,0,*7F
1496250089.08,58388,20.0,74228.0,6.05,2.89,2.55,0,*71
1496250090.31,58389,20.0,74230.3,6.05,2.77,2.35,0,*77
1496250091.54,58390,20.0,74226.0,6.05,2.65,2.17,0,*7C
1496250092.8,58391,20.0,74226.8,6.05,2.69,2.05,0,*72
1496250094.01,58392,20.0,74230.0,6.03,2.51,1.83,0,*71
1496250095.24,58393,20.0,74230.0,6.03,2.39,1.67,0,*74
1496250096.45,58394,20.0,74230.0,6.03,2.43,1.41,0,*7A
1496250097.71,58395,20.0,74232.3,6.05,2.43,1.21,0,*7B
1496250098.97,58396,20.0,74234.8,6.05,2.09,0.91,0,*4C
1496250100.19,58397,20.0,74232.5,6.03,1.89,0.25,0,*4F
1496250101.4,58398,20.0,74238.0,6.03,1.51,-0.07,0,*58
1496250102.64,58399,20.0,74236.0,6.03,1.17,0.21,0,*42
1496250103.88,58400,20.0,74232.5,6.03,1.21,0.87,0,*4C
1496250105.11,58401,20.0,74232.5,6.01,1.21,0.97,0,*4E
1496250106.35,58402,20.0,74236.8,6.01,1.29,0.97,0,*45
1496250107.6,58403,20.0,74238.0,6.01,1.43,1.21,0,*74
1496250108.83,58404,20.0,74236.3,6.01,1.67,1.41,0,*73
1496250110.07,58405,20.0,74238.0,5.99,1.37,1.25,0,*77
1496250111.33,58406,20.0,74238.8,5.97,1.25,1.37,0,*7A
1496250112.59,58407,20.0,74236.8,5.97,1.33,1.71,0,*7E
1496250113.82,58408,20.0,74236.3,5.99,1.63,2.01,0,*7E
1496250115.08,58409,20.06,74240.5,5.97,1.71,2.21,0,*70
1496250116.34,58410,20.0,74236.8,5.97,1.85,2.09,0,*79
1496250117.58,58411,20.0,74236.0,5.97,0.75,1.63,0,*49
1496250118.83,58412,20.0,74232.5,5.97,-0.23,1.59,0,*6D
1496250120.09,58413,20.0,74234.5,5.93,-0.89,1.71,0,*62
1496250121.32,58414,20.0,74236.0,5.95,-1.09,2.21,0,*5C
1496250122.56,58415,20.0,74236.5,5.93,-0.65,2.51,0,*67
1496250123.79,58416,20.0,74240.5,5.93,0.09,2.73,0,*73
1496250125.04,58417,20.0,74238.0,5.93,0.63,3.11,0,*4B
1496250126.28,58418,20.0,74234.0,5.93,1.43,3.25,0,*70
1496250127.51,58419,20.0,74236.3,5.91,1.89,3.45,0,*73
1496250128.72,58420,20.0,74236.0,5.91,2.39,3.59,0,*7C
1496250129.93,58421,20.0,74234.3,5.91,2.85,3.59,0,*7A
1496250131.14,58422,20.0,74228.0,5.91,2.99,3.49,0,*75
1496250132.38,58423,20.0,74232.5,5.91,3.11,3.45,0,*79
1496250133.64,58424,20.0,74234.3,5.89,3.23,3.41,0,*72
1496250134.88,58425,20.06,74232.3,5.89,3.29,3.41,0,*79
1496250136.08,58426,20.0,74228.0,5.85,3.29,3.29,0,*78
1496250137.3,58427,20.0,74230.3,5.85,3.25,3.37,0,*7A
1496250138.55,58428,20.0,74232.0,5.85,3.41,3.41,0,*76
1496250139.8,58429,20.0,74232.8,5.85,3.37,3.37,0,*77
1496250140.99,58430,20.0,74232.5,5.83,3.25,3.19,0,*76
1496250142.17,58431,20.0,74234.8,5.83,3.29,3.29,0,*78
1496250143.37,58432,20.0,74232.0,5.83,3.29,3.19,0,*78
1496250144.57,58433,20.0,74228.8,5.83,3.29,3.19,0,*79
1496250145.76,58434,20.0,74228.3,5.79,3.45,3.25,0,*7E
1496250146.98,58435,20.0,74232.5,5.79,3.33,3.03,0,*7A
1496250148.18,58436,20.0,74232.5,5.79,2.89,2.65,0,*78
1496250149.35,58437,20.0,74230.8,5.79,2.99,2.91,0,*73
1496250150.52,58438,20.0,74232.3,5.79,2.99,2.99,0,*74
1496250151.75,58439,20.0,74232.8,5.79,3.03,3.03,0,*75
1496250152.98,58440,20.0,74228.3,5.79,3.03,3.11,0,*78
1496250154.21,58441,20.0,74228.5,5.79,3.15,3.33,0,*7E
1496250155.44,58442,20.0,74230.5,5.79,3.15,3.33,0,*7D
1496250156.69,58443,20.0,74230.0,5.77,3.23,3.45,0,*76
1496250157.91,58444,20.0,74232.3,5.77,3.33,3.55,0,*71
1496250159.15,58445,20.0,74234.0,5.77,3.53,3.67,0,*77
1496250160.36,58446,20.0,74234.8,5.77,3.53,3.59,0,*79
1496250161.55,58447,20.0,74232.5,5.75,3.55,3.67,0,*71
1496250162.73,58448,20.0,74232.0,5.75,3.85,3.89,0,*73
1496250163.91,58449,20.0,74234.8,5.75,3.89,3.89,0,*7E
1496250165.08,58450,20.0,74232.0,5.75,3.89,3.89,0,*76
1496250166.31,58451,20.0,74236.3,5.77,3.79,3.81,0,*72
1496250167.48,58452,20.0,74232.8,5.75,3.63,3.63,0,*74
1496250168.67,58453,20.0,74236.3,5.75,3.63,3.67,0,*71
1496250169.87,58454,20.0,74232.8,5.75,3.67,3.85,0,*7E
1496250171.07,58455,20.0,74230.5,5.77,4.15,4.15,0,*71
1496250172.26,58456,20.0,74228.8,5.77,4.23,4.23,0,*72
1496250173.43,58457,20.0,74232.3,5.75,4.19,4.19,0,*71
1496250174.65,58458,20.0,74230.5,5.75,3.97,3.97,0,*7E
1496250175.84,58459,20.0,74228.0,5.77,4.15,4.11,0,*79
1496250177.04,58460,20.0,74228.8,5.77,4.11,4.23,0,*76
1496250178.21,58461,20.0,74232.8,5.75,4.07,4.19,0,*7B
1496250179.4,58462,20.0,74236.8,5.77,4.23,4.15,0,*70
1496250180.57,58463,20.0,74232.8,5.75,4.23,4.19,0,*7F
1496250181.8,58464,20.0,74234.3,5.77,4.27,4.31,0,*74
1496250183.0,58465,20.0,74236.5,5.77,4.37,4.37,0,*72
1496250184.2,58466,20.0,74232.0,5.77,4.41,4.53,0,*72
1496250185.39,58467,20.0,74236.0,5.77,4.49,4.53,0,*7B
1496250186.59,58468,20.0,74232.5,5.79,4.53,4.63,0,*72
1496250187.79,58469,20.0,74236.3,5.81,4.53,4.53,0,*77
1496250188.98,58470,20.0,74238.0,5.81,4.45,4.45,0,*7F
1496250190.18,58471,20.0,74238.3,5.81,4.45,4.41,0,*7A
1496250191.38,58472,20.0,74232.8,5.79,4.41,4.31,0,*7D
1496250192.6,58473,20.0,74238.0,5.81,4.31,4.15,0,*7A
1496250193.85,58474,20.0,74234.3,5.81,4.31,4.05,0,*7C
1496250195.02,58475,20.0,74238.5,5.83,3.85,3.85,0,*78
1496250196.2,58476,20.0,74236.3,5.83,3.89,3.85,0,*77
1496250197.39,58477,20.0,74236.5,5.81,3.81,3.85,0,*7C
1496250198.64,58478,20.0,74238.5,5.81,3.71,3.71,0,*77
1496250199.83,58479,20.0,74234.5,5.81,3.59,3.59,0,*76
1496250201.03,58480,20.0,74234.3,5.83,3.59,3.67,0,*7F
1496250202.23,58481,20.0,74232.5,5.83,3.85,4.01,0,*78
1496250203.42,58482,20.0,74232.8,5.81,3.85,3.81,0,*76
1496250204.61,58483,20.0,74230.0,5.81,3.85,3.85,0,*73
1496250205.81,58484,20.0,74230.0,5.81,4.15,4.07,0,*77
1496250207.07,58485,20.0,74228.3,5.81,4.31,4.31,0,*75
1496250208.29,58486,20.0,74228.5,5.81,4.31,4.15,0,*70
1496250209.51,58487,20.0,74230.0,5.81,4.31,4.15,0,*71
1496250210.7,58488,20.0,74232.3,5.85,4.33,4.11,0,*7C
1496250211.93,58489,20.0,74232.0,5.83,4.31,3.97,0,*70
1496250213.15,58490,20.0,74228.5,5.85,4.07,3.75,0,*77
1496250214.35,58491,20.0,74230.3,5.85,4.07,3.63,0,*71
1496250215.57,58492,20.06,74232.8,5.85,3.85,3.19,0,*72
1496250216.8,58493,20.0,74232.5,5.89,3.93,2.73,0,*75
1496250217.99,58494,20.0,74232.3,5.83,3.63,1.71,0,*76
1496250219.24,58495,20.0,74232.8,5.85,3.15,0.37,0,*43
1496250220.47,58496,20.0,74238.5,5.89,2.25,-1.55,0,*56
1496250221.7,58497,20.0,74230.8,5.85,0.97,-2.75,0,*61
1496250222.94,58498,20.0,74228.0,5.85,0.37,-1.99,0,*65
1496250224.14,58499,20.0,74230.5,5.83,0.41,-0.57,0,*50
1496250225.38,58500,20.0,74230.8,5.85,0.91,0.87,0,*7A
1496250226.63,58501,20.0,74230.0,5.85,1.37,1.93,0,*72
1496250227.83,58502,20.0,74232.0,5.83,2.21,2.65,0,*79
1496250229.03,58503,20.0,74228.3,5.83,2.59,2.91,0,*7C
1496250230.27,58504,20.0,74232.3,5.85,2.85,3.07,0,*72
1496250231.5,58505,20.0,74230.5,5.83,3.03,3.07,0,*7A
1496250232.72,58506,20.0,74228.3,5.83,3.41,3.19,0,*70
1496250233.96,58507,20.0,74226.0,5.83,3.67,3.41,0,*78
1496250235.16,58508,20.0,74226.5,5.83,3.63,3.15,0,*72
1496250236.35,58509,20.0,74224.3,5.83,3.49,2.95,0,*72
1496250237.58,58510,20.0,74230.5,5.83,3.15,2.69,0,*70
1496250238.82,58511,20.0,74224.5,5.83,3.15,2.81,0,*77
1496250240.07,58512,20.0,74224.0,5.81,3.23,2.89,0,*7B
1496250241.26,58513,20.0,74228.8,5.81,3.25,2.91,0,*75
1496250242.52,58514,20.0,74224.5,5.81,3.15,2.73,0,*7D
1496250243.71,58515,20.0,74224.8,5.81,2.91,2.31,0,*77
1496250244.93,58516,20.0,74230.0,5.81,2.91,2.21,0,*75
1496250246.15,58517,20.0,74234.3,5.79,2.51,1.29,0,*74
1496250247.37,58518,20.0,74232.0,5.79,1.89,0.87,0,*48
1496250248.61,58519,20.0,74234.3,5.81,1.71,0.37,0,*42
1496250249.82,58520,20.06,74238.3,5.79,1.33,-0.41,0,*65
1496250251.0,58521,20.0,74232.0,5.79,-0.03,-1.71,0,*79
1496250252.23,58522,20.0,74238.5,5.79,-0.89,-1.47,0,*4D
1496250253.45,58523,20.0,74234.0,5.79,-1.99,-1.75,0,*7D
1496250254.63,58524,20.0,74240.5,5.79,-2.91,-1.63,0,*76
1496250255.85,58525,20.0,74238.5,5.79,-2.67,-0.89,0,*4B
1496250257.05,58526,20.0,74236.8,5.77,-1.29,0.09,0,*5A
1496250258.24,58527,20.0,74238.5,5.77,-0.29,-0.03,0,*4D
1496250259.48,58528,20.0,74236.3,5.77,-0.27,-0.93,0,*75
1496250260.69,58529,20.0,74236.5,5.77,-0.29,-1.67,0,*40
1496250261.92,58530,20.0,74234.0,5.75,-0.97,-2.11,0,*4D
1496250263.12,58531,20.0,74228.0,5.77,-1.67,-2.43,0,*77
1496250264.33,58532,20.0,74232.8,5.75,-2.35,-2.59,0,*79
1496250265.54,58533,20.0,74236.0,5.75,-2.83,-2.71,0,*7F
1496250266.75,58534,20.0,74238.5,5.75,-3.75,-2.59,0,*7A
1496250267.94,58535,20.0,74234.5,5.75,-4.13,-2.31,0,*72
1496250269.15,58536,20.0,74226.3,5.73,-4.09,-2.19,0,*76
1496250270.41,58537,20.0,74234.0,5.73,-4.89,-2.47,0,*74
1496250271.62,58538,20.0,74228.5,5.71,-7.43,-3.27,0,*7B
1496250272.8,58539,20.0,74230.3,5.71,-9.27,-3.03,0,*70
1496250274.01,58540,20.0,74232.5,5.69,-8.37,-2.23,0,*74
1496250275.27,58541,20.0,74228.0,5.69,-7.43,-2.11,0,*78
1496250276.49,58542,20.0,74222.5,5.67,-6.31,-2.67,0,*70
1496250277.72,58543,20.0,74226.5,5.69,-6.85,-2.63,0,*74
1496250278.96,58544,20.0,74228.3,5.67,-7.05,-2.51,0,*75
1496250280.18,58545,20.0,74228.5,5.63,-7.11,-2.11,0,*71
1496250281.38,58546,20.0,74228.5,5.63,-6.23,-2.43,0,*75
1496250282.59,58547,20.0,74228.3,5.63,-8.07,-3.31,0,*78
1496250283.78,58548,20.0,74228.0,5.63,-10.19,-2.83,0,*49
1496250284.99,58549,20.0,74228.8,5.63,-9.67,-1.91,0,*79
1496250286.16,58550,20.0,74230.3,5.63,-8.21,-0.61,0,*4C
1496250287.39,58551,20.0,74232.5,5.63,-5.77,0.41,0,*6C
1496250288.62,58552,20.0,74234.8,5.61,-2.95,1.17,0,*54
1496250289.83,58553,20.0,74230.8,5.63,-1.17,1.37,0,*5C
1496250291.05,58554,20.0,74232.5,5.61,-0.33,1.09,0,*63
1496250292.24,58555,20.0,74234.8,5.63,-0.29,0.91,0,*5B
1496250293.48,58556,20.0,74232.5,5.61,-0.23,0.79,0,*56
1496250294.7,58557,20.0,74228.3,5.61,-0.33,0.75,0,*5A
1496250295.91,58558,20.0,74230.5,5.63,-0.93,0.55,0,*5F
1496250297.12,58559,20.0,74228.5,5.59,-1.17,1.13,0,*59
1496250298.33,58560,20.0,74230.0,5.59,-1.21,1.25,0,*53
1496250299.55,58561,20.0,74230.8,5.57,-0.77,1.47,0,*6A
1496250300.75,58562,20.0,74230.3,5.59,-0.27,1.83,0,*6A
1496250301.93,58563,20.0,74230.0,5.59,0.01,1.93,0,*73
1496250303.12,58564,20.0,74226.0,5.59,0.59,2.31,0,*42
1496250304.33,58565,20.0,74224.5,5.59,1.09,2.65,0,*76
1496250305.54,58566,20.0,74224.0,5.59,1.55,2.65,0,*7C
1496250306.74,58567,20.0,74224.8,5.59,1.83,2.51,0,*71
1496250307.97,58568,20.0,74220.8,5.59,2.09,2.21,0,*78
1496250309.19,58569,20.0,74226.5,5.59,1.93,2.05,0,*7F
1496250310.39,58570,20.0,74228.3,5.59,1.83,2.05,0,*76
1496250311.61,58571,20.0,74226.3,5.59,1.59,2.05,0,*70
1496250312.85,58572,20.0,74226.5,5.59,1.55,2.17,0,*7C
1496250314.07,58573,20.0,74224.5,5.59,1.59,2.39,0,*7D
1496250315.32,58574,20.0,74218.8,5.61,1.71,2.81,0,*78
1496250316.53,58575,20.0,74214.8,5.59,1.85,2.99,0,*70
1496250317.75,58576,20.0,74208.8,5.59,2.21,3.33,0,*7F
1496250318.96,58577,20.0,74210.5,5.59,2.31,3.37,0,*7B
1496250320.19,58578,20.0,74216.0,5.59,2.43,3.49,0,*78
1496250321.41,58579,20.0,74214.5,5.59,2.43,3.53,0,*72
1496250322.61,58580,20.0,74210.5,5.59,2.39,3.59,0,*73
1496250323.79,58581,20.0,74214.5,5.59,2.65,3.63,0,*72
1496250325.03,58582,20.0,74212.8,5.61,2.73,3.53,0,*7E
1496250326.27,58583,20.0,74218.5,5.57,3.03,3.53,0,*7C
1496250327.52,58584,20.0,74220.3,5.61,3.45,3.79,0,*74
1496250328.72,58585,20.0,74214.3,5.59,3.49,3.81,0,*75
1496250329.92,58586,20.0,74214.3,5.59,3.53,3.81,0,*7D
1496250331.12,58587,20.0,74216.5,5.59,3.85,3.97,0,*70
1496250332.32,58588,20.0,74222.8,5.59,3.97,3.93,0,*78
1496250333.5,58589,20.0,74222.3,5.59,4.07,4.07,0,*7D
1496250334.67,58590,20.0,74224.3,5.59,4.19,4.19,0,*75
1496250335.84,58591,20.0,74220.0,5.59,4.11,4.11,0,*74
1496250337.04,58592,20.0,74222.8,5.59,3.85,3.71,0,*7C
1496250338.25,58593,20.0,74226.3,5.59,3.81,3.71,0,*79
1496250339.47,58594,20.0,74230.0,5.57,3.81,3.71,0,*70
1496250340.65,58595,20.0,74224.8,5.59,3.81,3.63,0,*7C
1496250341.85,58596,20.0,74230.0,5.59,3.59,3.49,0,*72
1496250343.05,58597,20.0,74224.5,5.59,3.53,3.25,0,*73
1496250344.27,58598,20.0,74226.3,5.59,3.23,3.11,0,*7C
1496250345.5,58599,20.0,74226.8,5.59,3.03,3.11,0,*7F
1496250346.7,58600,20.0,74224.5,5.59,2.59,2.99,0,*73
1496250347.93,58601,20.0,74224.0,5.59,2.55,3.03,0,*7C
1496250349.18,58602,20.0,74228.0,5.57,2.59,3.23,0,*7F
1496250350.38,58603,20.0,74224.8,5.59,2.65,3.11,0,*7E
1496250351.61,58604,20.0,74224.0,5.59,2.51,3.03,0,*7D
1496250352.86,58605,20.0,74226.3,5.57,2.09,2.69,0,*72
1496250354.07,58606,20.0,74228.8,5.59,1.37,2.65,0,*7D
1496250355.3,58607,20.0,74228.0,5.57,1.13,2.27,0,*72
1496250356.53,58608,20.0,74230.8,5.57,-0.53,2.09,0,*69
1496250357.73,58609,20.0,74228.3,5.59,-1.63,2.05,0,*58
1496250358.94,58610,20.0,74224.8,5.59,-1.21,2.39,0,*59
1496250360.14,58611,20.0,74224.8,5.59,-0.53,2.69,0,*69
1496250361.34,58612,20.0,74230.5,5.57,-0.03,2.91,0,*56
1496250362.53,58613,20.0,74230.3,5.59,0.59,2.91,0,*4B
1496250363.78,58614,20.0,74230.8,5.57,0.95,2.89,0,*4B
1496250365.04,58615,20.0,74232.3,5.57,1.37,3.03,0,*70
1496250366.29,58616,20.0,74230.0,5.57,1.47,3.03,0,*74
1496250367.54,58617,20.0,74230.0,5.57,1.67,3.15,0,*70
1496250368.73,58618,20.0,74226.3,5.53,1.83,3.11,0,*75
1496250369.98,58619,20.0,74222.5,5.51,2.21,3.07,0,*7A
1496250371.2,58620,20.0,74224.0,5.53,2.69,3.33,0,*79
1496250372.46,58621,20.0,74224.8,5.51,2.81,3.41,0,*79
1496250373.69,58622,20.0,74224.0,5.51,3.07,3.63,0,*75
1496250374.95,58623,20.0,74230.3,5.51,3.15,3.75,0,*70
1496250376.17,58624,20.0,74226.0,5.51,3.33,3.89,0,*70
1496250377.4,58625,20.0,74226.8,5.51,3.41,3.89,0,*74
1496250378.58,58626,20.0,74230.0,5.53,3.59,3.93,0,*77
1496250379.83,58627,20.0,74228.8,5.51,3.45,3.75,0,*71
1496250381.05,58628,20.0,74228.5,5.51,3.55,3.67,0,*7C
1496250382.21,58629,20.0,74232.0,5.53,3.59,3.55,0,*72
1496250383.44,58630,20.0,74234.5,5.51,3.45,3.29,0,*7E
1496250384.7,58631,20.0,74234.3,5.51,3.41,3.15,0,*74
1496250385.92,58632,20.0,74230.3,5.51,3.25,2.85,0,*7D
1496250387.15,58633,20.0,74234.5,5.51,3.07,2.91,0,*79
1496250388.38,58634,20.0,74230.8,5.51,2.91,2.81,0,*71
1496250389.63,58635,20.0,74230.0,5.51,2.73,2.73,0,*71
1496250390.88,58636,20.0,74234.5,5.51,2.81,2.73,0,*7F
1496250392.11,58637,20.0,74232.5,5.49,2.81,2.77,0,*73
1496250393.33,58638,20.0,74236.0,5.45,2.77,2.77,0,*79
1496250394.52,58639,20.0,74232.5,5.49,2.81,2.91,0,*75
1496250395.75,58640,20.0,74238.0,5.45,2.89,3.03,0,*75
1496250396.97,58641,20.0,74234.3,5.49,2.59,2.77,0,*77
1496250398.18,58642,20.0,74230.8,5.45,2.65,2.81,0,*7E
1496250399.38,58643,20.0,74226.3,5.45,2.99,3.03,0,*77
1496250400.56,58644,20.0,74228.0,5.45,3.29,3.29,0,*72
1496250401.75,58645,20.0,74228.0,5.45,3.25,3.11,0,*74
1496250402.95,58646,20.0,74230.3,5.49,3.23,2.91,0,*74
1496250404.16,58647,20.0,74234.3,5.45,3.25,2.81,0,*7E
1496250405.36,58648,20.0,74236.5,5.45,2.91,2.43,0,*71
1496250406.56,58649,20.0,74232.5,5.49,2.99,2.17,0,*75
1496250407.78,58650,20.0,74236.3,5.45,2.69,1.85,0,*76
1496250409.0,58651,20.0,74236.3,5.49,2.47,1.59,0,*76
1496250410.21,58652,20.0,74238.3,5.49,2.09,1.43,0,*74
1496250411.43,58653,20.0,74238.8,5.45,1.97,1.47,0,*79
1496250412.63,58654,20.0,74240.3,5.45,1.83,1.55,0,*78
1496250413.86,58655,20.0,74238.5,5.45,1.71,1.21,0,*77
1496250415.08,58656,20.0,74232.5,5.43,1.67,1.05,0,*73
1496250416.33,58657,20.0,74236.0,5.43,1.29,0.51,0,*48
1496250417.55,58658,20.0,74236.8,5.41,0.63,0.21,0,*7D
1496250418.74,58659,20.0,74228.0,5.43,0.09,-0.03,0,*5F
1496250419.92,58660,20.0,74234.3,5.41,-0.69,-0.73,0,*7B
1496250421.1,58661,20.0,74234.0,5.41,-1.55,-1.33,0,*71
1496250422.29,58662,20.0,74238.0,5.41,-3.11,-1.71,0,*76
1496250423.55,58663,20.0,74234.5,5.43,-4.85,-1.91,0,*71
1496250424.74,58664,20.0,74232.0,5.41,-6.59,-2.31,0,*7E
1496250425.98,58665,20.0,74236.0,5.41,-7.61,-1.83,0,*7F
1496250427.19,58666,20.0,74238.0,5.41,-6.73,-1.39,0,*7F
1496250428.4,58667,20.0,74236.0,5.41,-6.43,-0.93,0,*4C
1496250429.6,58668,20.0,74236.8,5.37,-6.63,-0.69,0,*45
1496250430.77,58669,20.0,74234.5,5.37,-6.85,0.01,0,*5F
1496250431.97,58670,20.0,74230.3,5.41,-6.47,0.37,0,*6D
1496250433.18,58671,20.0,74226.8,5.37,-7.11,1.13,0,*58
1496250434.42,58672,20.0,74222.5,5.37,-4.89,1.85,0,*56
1496250435.59,58673,20.0,74224.3,5.37,-2.35,2.31,0,*5A
1496250436.8,58674,20.0,74224.0,5.41,-0.53,2.81,0,*65
1496250438.02,58675,20.0,74226.5,5.37,0.17,2.89,0,*40
1496250439.21,58676,20.0,74230.0,5.37,0.75,2.91,0,*4E
1496250440.41,58677,20.0,74234.8,5.37,0.97,2.89,0,*4A
1496250441.65,58678,20.0,74234.0,5.41,1.13,2.81,0,*71
1496250442.88,58679,20.0,74236.3,5.37,0.91,2.59,0,*4F
1496250444.1,58680,20.0,74234.8,5.37,0.47,2.47,0,*4D
1496250445.3,58681,20.0,74236.8,5.41,0.55,2.61,0,*4A
1496250446.52,58682,20.0,74236.3,5.37,0.41,2.47,0,*49
1496250447.74,58683,20.0,74232.0,5.37,-0.27,2.21,0,*65
1496250449.0,58684,20.0,74236.8,5.35,-1.05,2.13,0,*50
1496250450.22,58685,20.0,74240.8,5.35,-1.17,2.27,0,*55
1496250451.43,58686,20.0,74242.3,5.37,-0.85,2.65,0,*68
1496250452.65,58687,20.0,74214.8,5.35,-0.49,2.77,0,*68
1496250453.87,58688,20.0,74206.8,5.35,0.01,2.77,0,*76
1496250455.08,58689,20.0,74216.5,5.35,0.67,2.95,0,*4B
1496250456.31,58690,20.0,74220.3,5.35,1.05,2.85,0,*77
1496250457.54,58691,20.0,74224.5,5.33,1.17,2.77,0,*7E
1496250458.81,58692,20.0,74222.5,5.35,1.33,2.73,0,*79
1496250460.03,58693,20.0,74224.0,5.33,1.67,2.73,0,*7F
1496250461.25,58694,20.0,74226.8,5.33,1.89,2.85,0,*71
1496250462.45,58695,20.0,74232.8,5.33,2.17,2.95,0,*75
1496250463.63,58696,20.0,74226.8,5.33,2.31,2.99,0,*7E
1496250464.89,58697,20.0,74228.5,5.31,2.47,3.03,0,*7E
1496250466.09,58698,20.0,74230.0,5.33,2.61,3.15,0,*70
1496250467.33,58699,20.0,74232.0,5.31,2.69,3.19,0,*77
1496250468.58,58700,20.0,74232.5,5.31,2.73,3.19,0,*7D
1496250469.82,58701,20.0,74224.8,5.31,2.81,3.23,0,*78
1496250471.07,58702,20.0,74222.8,5.31,2.81,3.23,0,*7B
1496250472.31,58703,20.0,74222.0,5.31,2.73,3.19,0,*7E
1496250473.56,58704,20.0,74226.3,5.31,2.73,3.11,0,*71
1496250474.76,58705,20.0,74216.8,5.29,2.91,3.19,0,*7D
1496250475.99,58706,20.0,74222.5,5.29,3.23,3.45,0,*7F
1496250477.18,58707,20.0,74226.3,5.29,3.55,3.67,0,*7F
1496250478.38,58708,20.0,74218.0,5.29,3.63,3.67,0,*75
1496250479.6,58709,20.0,74216.8,5.31,3.63,3.67,0,*7D
1496250480.83,58710,20.0,74216.8,5.29,3.67,3.75,0,*7B
1496250482.07,58711,20.0,74222.8,5.31,3.79,3.89,0,*7F
1496250483.3,58712,20.0,74224.0,5.31,3.67,3.81,0,*7B
1496250484.56,58713,20.0,74222.8,5.31,3.41,3.45,0,*76
1496250485.81,58714,20.0,74226.5,5.31,3.33,3.41,0,*70
1496250487.01,58715,20.0,74230.5,5.29,3.45,3.55,0,*7C
1496250488.21,58716,20.0,74228.8,5.31,3.63,3.63,0,*77
1496250489.4,58717,20.0,74228.8,5.29,3.63,3.67,0,*7B
1496250490.63,58718,20.0,74228.8,5.29,3.67,3.79,0,*7F
1496250491.84,58719,20.0,74230.0,5.31,3.81,3.89,0,*70
1496250493.06,58720,20.0,74228.0,5.31,3.53,3.63,0,*71
1496250494.28,58721,20.0,74232.5,5.31,3.67,3.63,0,*77
1496250495.46,58722,20.0,74230.5,5.29,3.81,3.81,0,*79
1496250496.69,58723,20.0,74230.8,5.29,3.79,3.75,0,*74
1496250497.92,58724,20.0,74230.8,5.31,3.81,3.79,0,*71
1496250499.15,58725,20.0,74230.3,5.31,3.89,3.79,0,*78
1496250500.35,58726,20.0,74228.0,5.29,3.63,3.45,0,*79
1496250501.55,58727,20.0,74226.8,5.29,3.75,3.55,0,*7E
1496250502.77,58728,20.0,74228.5,5.29,3.75,3.53,0,*77
1496250503.98,58729,20.0,74226.8,5.29,3.63,3.41,0,*72
1496250505.21,58730,20.0,74230.5,5.29,3.67,3.41,0,*7E
1496250506.45,58731,20.0,74230.5,5.29,3.41,3.33,0,*7E
1496250507.68,58732,20.0,74230.3,5.29,3.41,3.33,0,*7D
1496250508.9,58733,20.0,74228.5,5.29,3.45,3.45,0,*79
1496250510.13,58734,20.0,74230.5,5.29,3.53,3.41,0,*7D
1496250511.35,58735,20.0,74232.0,5.29,3.19,3.19,0,*7F
1496250512.57,58736,20.0,74226.5,5.29,3.19,3.33,0,*74
1496250513.77,58737,20.0,74226.0,5.29,3.45,3.63,0,*79
1496250514.96,58738,20.0,74226.0,5.29,3.53,3.63,0,*71
1496250516.17,58739,20.0,74224.3,5.25,3.41,3.59,0,*76
1496250517.36,58740,20.0,74234.3,5.29,3.45,3.55,0,*7C
1496250518.59,58741,20.0,74230.0,5.29,3.67,3.67,0,*7C
1496250519.82,58742,20.0,74230.5,5.29,3.75,3.67,0,*7C
1496250521.02,58743,20.0,74228.8,5.31,3.63,3.63,0,*77
1496250522.24,58744,20.0,74234.0,5.29,3.53,3.41,0,*7A
1496250523.47,58745,20.0,74234.3,5.31,3.63,3.41,0,*71
1496250524.7,58746,20.0,74228.3,5.31,3.53,2.91,0,*7D
1496250525.92,58747,20.0,74226.5,5.29,3.33,2.73,0,*7F
1496250527.14,58748,20.0,74226.8,5.29,3.19,2.73,0,*78
1496250528.37,58749,20.0,74226.8,5.29,3.11,2.81,0,*7C
1496250529.63,58750,20.0,74226.8,5.31,3.11,3.07,0,*72
1496250530.85,58751,20.0,74224.5,5.29,3.11,3.19,0,*75
1496250532.11,58752,20.0,74226.5,5.31,3.11,3.11,0,*77
1496250533.33,58753,20.0,74230.0,5.29,3.19,3.11,0,*77
1496250534.55,58754,20.0,74228.8,5.29,3.23,3.11,0,*79
1496250535.77,58755,20.0,74232.3,5.29,2.85,2.85,0,*79
1496250537.0,58756,20.0,74230.8,5.29,2.59,2.85,0,*7B